This demonstration page uses our WeatherBlox Daily Observations layout. Learn more.

40.92945, -100.16068

Hourly Observations for September 13, 2018

Temp ( °F °C ) Dew Point ( °F °C ) Humidity (%) Winds ( mph kmh ) Pressure ( in mb ) Visibility ( mi km ) Precip ( " mm )
12:15 am 00:15 Clear 69 20.7 62 16.7 78 78 SSE 17 28 29.83 1010 10 16.0934 0 0
12:35 am 00:35 Clear 69 20.5 63 17.1 81 81 SSE 18 30 29.83 1010 10 16.0934 0 0
12:55 am 00:55 Clear 69 20.5 64 17.5 83 83 SSE 20 31 29.83 1010 10 16.0934 0 0
1:15 am 01:15 Clear 69 20.3 64 17.7 85 85 SSE 20 31 29.83 1010 10 16.0934 0 0
1:35 am 01:35 Partly Cloudy 68 20.2 64 17.8 86 86 SSE 16 26 29.83 1010 10 16.0934 0 0
1:55 am 01:55 Partly Cloudy 68 20.1 64 17.9 87 87 SSE 17 28 29.83 1010 10 16.0934 0 0
2:15 am 02:15 Partly Cloudy 69 20.3 64 18 87 87 SSE 20 31 29.83 1010 10 16.0934 0 0
2:35 am 02:35 Mostly Cloudy 68 20.1 64 18 88 88 SSE 21 33 29.8 1009 10 16.0934 0 0
2:55 am 02:55 Cloudy 69 20.5 65 18.1 86 86 SSE 18 30 29.8 1009 10 16.0934 0 0
3:15 am 03:15 Cloudy 69 20.5 64 18 86 86 S 18 30 29.8 1009 10 16.0934 0 0
3:35 am 03:35 Cloudy 69 20.5 64 18 86 86 SSE 17 28 29.8 1009 10 16.0934 0 0
3:55 am 03:55 Cloudy 69 20.5 64 18 86 86 SSE 16 26 29.8 1009 10 16.0934 0 0
4:15 am 04:15 Cloudy 69 20.5 64 18 86 86 SSE 21 33 29.8 1009 10 16.0934 0 0
4:35 am 04:35 Cloudy 69 20.6 64 18 85 85 S 16 26 29.8 1009 10 16.0934 0 0
4:55 am 04:55 Cloudy 69 20.6 64 18 85 85 SSE 16 26 29.8 1009 10 16.0934 0 0
5:15 am 05:15 Cloudy 69 20.8 65 18.1 85 85 SSE 21 33 29.8 1009 10 16.0934 0 0
5:35 am 05:35 Mostly Cloudy 69 20.5 65 18.1 86 86 SSE 18 30 29.8 1009 10 16.0934 0 0
5:55 am 05:55 Mostly Cloudy 69 20.5 65 18.1 86 86 SSE 15 24 29.8 1009 10 16.0934 0 0
6:15 am 06:15 Mostly Cloudy 68 20.2 65 18.1 88 88 S 16 26 29.8 1009 10 16.0934 0 0
6:35 am 06:35 Cloudy 68 20.1 65 18.2 89 89 S 15 24 29.8 1009 10 16.0934 0 0
6:55 am 06:55 Cloudy 68 20.1 65 18.1 88 88 S 14 22 29.8 1009 10 16.0934 0 0
7:15 am 07:15 Mostly Cloudy 68 20.1 65 18.1 88 88 SSE 13 20 29.8 1009 10 16.0934 0 0
7:35 am 07:35 Cloudy 68 20.1 65 18.2 89 89 S 10 17 29.83 1010 10 16.0934 0 0
7:55 am 07:55 Cloudy 69 20.5 65 18.5 88 88 SSE 10 17 29.83 1010 10 16.0934 0 0
8:15 am 08:15 Cloudy 69 20.6 65 18.5 88 88 SSE 14 22 29.83 1010 10 16.0934 0 0
8:35 am 08:35 Cloudy 70 21.1 65 18.5 85 85 SSE 16 26 29.8 1009 10 16.0934 0 0
8:55 am 08:55 Cloudy 71 21.5 65 18.5 83 83 S 16 26 29.83 1010 10 16.0934 0 0
9:15 am 09:15 Cloudy 72 22 66 18.7 82 82 S 18 30 29.83 1010 10 16.0934 0 0
9:35 am 09:35 Cloudy 72 22.2 66 18.7 81 81 S 16 26 29.83 1010 10 16.0934 0 0
9:55 am 09:55 Cloudy 73 22.7 65 18.6 78 78 S 22 35 29.8 1009 10 16.0934 0 0
10:15 am 10:15 Cloudy 73 23 66 18.7 77 77 S 21 33 29.8 1009 10 16.0934 0 0
10:35 am 10:35 Cloudy 74 23.5 66 18.7 75 75 S 14 22 29.8 1009 10 16.0934 0 0
10:55 am 10:55 Cloudy 75 23.8 66 18.8 74 74 SSE 15 24 29.8 1009 10 16.0934 0 0
11:15 am 11:15 Cloudy 76 24.2 66 19 73 73 S 15 24 29.8 1009 10 16.0934 0 0
11:35 am 11:35 Cloudy 76 24.6 66 18.8 70 70 S 18 30 29.8 1009 10 16.0934 0 0
11:55 am 11:55 Cloudy 77 24.8 66 18.7 69 69 S 14 22 29.8 1009 10 16.0934 0 0
12:15 pm 12:15 Cloudy 79 26.1 67 19.3 66 66 S 18 30 29.77 1008 10 16.0934 0 0
12:35 pm 12:35 Cloudy 80 26.5 66 18.9 63 63 S 16 26 29.77 1008 10 16.0934 0 0
12:55 pm 12:55 Cloudy 81 27.2 67 19.2 62 62 S 22 35 29.77 1008 10 16.0934 0 0
1:15 pm 13:15 Cloudy 82 27.5 67 19.2 61 61 S 17 28 29.77 1008 10 16.0934 0 0
1:35 pm 13:35 Cloudy 82 28 66 19.1 58 58 SSE 17 28 29.77 1008 10 16.0934 0 0
1:55 pm 13:55 Partly Cloudy 84 29 67 19.4 56 56 S 17 28 29.74 1007 10 16.0934 0 0
2:15 pm 14:15 Sunny 85 29.3 66 19 54 54 S 17 28 29.71 1006 10 16.0934 0 0
2:35 pm 14:35 Sunny 86 29.8 67 19.2 53 53 S 18 30 29.71 1006 10 16.0934 0 0
2:55 pm 14:55 Sunny 86 30.1 67 19.3 52 52 S 18 30 29.71 1006 10 16.0934 0 0
3:15 pm 15:15 Sunny 87 30.6 66 19.1 50 50 S 15 24 29.71 1006 10 16.0934 0 0
3:35 pm 15:35 Sunny 87 30.7 66 18.8 49 49 S 18 30 29.71 1006 10 16.0934 0 0
3:55 pm 15:55 Sunny 88 31 65 18.6 48 48 S 13 20 29.71 1006 10 16.0934 0 0
4:15 pm 16:15 Sunny 88 31.2 66 18.7 47 47 S 21 33 29.71 1006 10 16.0934 0 0
4:35 pm 16:35 Sunny 88 31.2 66 18.9 48 48 S 15 24 29.71 1006 10 16.0934 0 0
4:55 pm 16:55 Sunny 88 31.3 66 18.7 47 47 SSE 18 30 29.71 1006 10 16.0934 0 0
5:15 pm 17:15 Sunny 88 31.3 66 18.8 47 47 S 17 28 29.71 1006 10 16.0934 0 0
5:35 pm 17:35 Sunny 89 31.4 65 18.6 47 47 S 13 20 29.71 1006 10 16.0934 0 0
5:55 pm 17:55 Sunny 88 31.2 65 18.5 47 47 S 17 28 29.68 1005 10 16.0934 0 0
6:15 pm 18:15 Sunny 88 31 65 18.4 47 47 S 17 28 29.71 1006 10 16.0934 0 0
6:35 pm 18:35 Sunny 87 30.6 66 19 50 50 S 13 20 29.71 1006 10 16.0934 0 0
6:55 pm 18:55 Sunny 86 29.8 68 20.1 56 56 SSE 10 17 29.71 1006 10 16.0934 0 0
7:15 pm 19:15 Sunny 84 28.7 68 20.2 60 60 SSE 10 17 29.74 1007 10 16.0934 0 0
7:35 pm 19:35 Sunny 82 28 68 20 62 62 SSE 9 15 29.74 1007 10 16.0934 0 0
7:55 pm 19:55 Clear 81 27.1 67 19.7 64 64 SSE 10 17 29.74 1007 10 16.0934 0 0
8:15 pm 20:15 Clear 79 26.1 67 19.5 67 67 SSE 10 17 29.74 1007 10 16.0934 0 0
8:35 pm 20:35 Clear 78 25.6 67 19.5 69 69 SSE 10 17 29.77 1008 10 16.0934 0 0
8:55 pm 20:55 Clear 77 25 67 19.5 72 72 SSE 10 17 29.8 1009 10 16.0934 0 0
9:15 pm 21:15 Clear 77 25 67 19.5 72 72 SE 10 17 29.8 1009 10 16.0934 0 0
9:35 pm 21:35 Clear 76 24.3 67 19.3 74 74 SE 8 13 29.8 1009 10 16.0934 0 0
9:55 pm 21:55 Clear 75 24 67 19.5 76 76 SE 8 13 29.8 1009 10 16.0934 0 0
10:15 pm 22:15 Clear 74 23.4 67 19.6 79 79 SSE 10 17 29.8 1009 10 16.0934 0 0
10:35 pm 22:35 Clear 74 23.5 67 19.6 79 79 SSE 12 19 29.8 1009 10 16.0934 0 0
10:55 pm 22:55 Clear 74 23.5 67 19.5 78 78 SSE 12 19 29.83 1010 10 16.0934 0 0
11:15 pm 23:15 Clear 74 23.2 67 19.5 80 80 SSE 14 22 29.83 1010 10 16.0934 0 0
11:35 pm 23:35 Clear 74 23.1 67 19.3 79 79 SSE 13 20 29.83 1010 10 16.0934 0 0
11:55 pm 23:55 Clear 73 22.7 67 19.2 81 81 SSE 13 20 29.85 1011 10 16.0934 0 0

Powered by AerisWeather